sat.trackr.live / text

‹ back to catalog

MIMIR 1

NORAD 68490 · 2026-067CC

PAYLOAD ACTIVE UNKNOWN

§ Identity

Operator
Country
NOR
Launch date
2026-03-30
Launch site
AFWTR
Launch vehicle
Mass (kg)
RCS (m²)

External: N2YO · Heavens-Above · Gunter

§ Orbital elements

Epoch: 2026-05-24T20:31:06.335616Z

Period
96.57 min
Inclination
97.7601°
Eccentricity
0.0003980
Mean motion
14.91211036 rev/d
Perigee alt
591.4 km
Apogee alt
596.9 km
Semi-major
6,972.3 km
B*
1.6852e-4
RAAN
103.4466°
Arg perigee
97.3132°
Mean anomaly
262.8539°
Rev number
824

§ Raw data

MIMIR 11 68490U 26067CC  26144.85493444  .00001619  00000+0  16852-3 0  99972 68490  97.7601 103.4466 0003980  97.3132 262.8539 14.91211036  8245

JSON: /api/v1/satellites/68490 · /tle

For live sub-satellite position, see the globe view (requires WebGL).

§ Visibility from observer

Set your observer location to see the next 7 days of passes ≥ 10°. The values pass through the URL so the page stays shareable.

No JS? Fill the form by hand. The geolocation button needs JavaScript.